SCP
0 0 0 0 0 0 0 0 0 0 0 0 0 0 0 0 0 0 0 0 0 0 0 -0 -0 -0 -0 -0 -0 -0 -0 0 -0 0 0 0 0 0 0 -0 -0 0 0 0 0 0 0 -0 0 0 0 0 0 0
0 0 0 0 0 0 0 0 0 0 0 0 0 0 0 0 0 0 0 0 0 0 0 -0 -0 -0 -0 -0 -0 0 0 0 0 0 0 0 0 0 -0 -0 -0 0 0 0 0 0 -0 0 0 -0 -0 0 0 0
0 0 0 0 0 0 0 0 0 0 0 0 0 0 0 0 0 0 0 0 0 0 0 -0 -0 -0 0 -0 -0 0 0 0 0 0 0 0 0 0 0 0 -0 -0 0 0 0 0 -0 0 0 -0 -0 0 -0 0
0 0 0 0 0 0 0 0 0 0 0 0 0 0 0 0 0 0 0 0 0 0 0 -0 -0 -0 -0 -0 -0 -0 -0 -0 0 0 0 0 0 0 0 -0 -0 0 0 0 0 0 0 0 -0 -0 -0 -0 -0 -0
0 0 0 0 0 0 0 0 0 0 0 0 0 0 0 0 0 0 0 0 0 0 -0 -0 -0 -0 -0 -0 -0 0 -0 0 0 0 0 0 0 0 -0 -0 0 0 0 -0 0 0 0 0 0 0 -0 -0 -0 -0
0 0 0 0 0 0 0 0 0 0 0 0 0 0 0 0 0 0 0 0 0 0 -0 -0 -0 0 -0 -0 -0 -0 0 -0 0 0 0 0 -0 0 -0 0 0 -0 -0 -0 -0 -0 -0 -0 -0 -0 -0 -0 -0 -0
0 0 0 0 0 0 0 0 0 0 0 0 0 0 0 0 0 0 0 0 -0 0 0 -0 -0 -0 -0 -0 -0 -0 -0 0 -0 0 0 0 0 0 0 0 0 0 -0 -0 -0 -0 -0 -0 -0 0 0 -0 -0 -0
0 0 0 0 0 0 0 0 0 0 0 0 0 0 0 0 0 0 0 -0 -0 0 -0 -0 0 -0 0 0 -0 -0 0 -0 -0 0 0 0 0 0 0 0 0 0 -0 -0 -0 0 0 0 0 -0 -0 -0 -0 0
0 0 0 0 0 0 0 0 0 0 -0 0 -0 0 0 0 0 0 0 0 0 0 -0 -0 0 -0 -0 0 0 0 -0 -0 -0 0 0 0 -0 0 -0 -0 -0 0 0 0 0 -0 -0 -0 -0 -0 -0 0 0 0
0 0 0 0 0 0 0 0 0 -0 -0 0 0 0 0 0 0 0 0 0 0 0 0 0 0 -0 0 0 -0 -0 0 0 0 0 0 0 0 -0 -0 0 0 -0 0 -0 -0 -0 -0 -0 -0 -0 -0 -0 -0 -0
0 0 0 0 0 0 0 0 0 0 0 0 0 0 0 0 0 0 0 0 0 -0 0 0 0 0 -0 -0 0 0 0 0 -0 0 0 0 0 0 -0 0 0 -0 -0 -0 -0 -0 -0 -0 -0 -0 -0 -0 -0 -0
0 0 0 0 0 0 0 0 0 0 0 0 0 0 0 0 0 0 0 0 -0 -0 0 0 0 0 0 -0 0 0 0 0 -0 0 0 0 -0 -0 0 0 0 -0 -0 -0 -0 -0 -0 -0 -0 0 0 0 0 0
0 0 0 0 0 0 0 0 0 0 0 0 0 0 0 0 0 0 0 0 0 0 0 -0 -0 -0 0 0 0 0 0 0 0 0 0 0 0 0 0 0 0 0 0 0 -0 0 0 0 0 0 0 0 0 0
0 0 0 0 0 0 0 0 0 0 0 0 0 0 0 0 0 0 -0 -0 0 0 0 0 0 -0 0 0 0 0 0 0 0 0 0 -0 -0 -0 0 0 -0 -0 0 0 0 0 0 0 0 0 0 0 0 0
0 0 0 -0 -0 0 0 0 0 0 0 0 0 0 0 0 0 0 -0 0 0 0 0 0 0 -0 0 0 0 0 0 0 0 0 0 -0 -0 -0 0 0 0 0 0 0 0 0 0 0 0 0 0 0 0 0
0 -0 -0 0 0 0 0 0 0 0 0 0 0 0 0 0 0 -0 0 0 0 0 0 -0 0 -0 0 0 0 0 0 0 0 0 -0 -0 0 0 0 0 0 0 0 0 0 0 0 0 0 0 0 0 0 0
0 0 0 0 0 0 0 0 0 0 0 0 0 0 0 0 0 -0 0 0 0 0 0 0 -0 0 -0 0 0 0 0 0 0 0 0 0 0 0 0 0 0 0 0 0 0 0 0 0 0 0 0 0 0 0
0 0 0 0 0 0 0 0 0 0 0 0 0 0 0 0 0 0 0 0 0 0 0 0 0 0 0 0 0 0 0 0 0 0 0 0 0 0 0 0 0 0 0 0 0 0 0 0 0 0 0 0 0 0
0 0 0 0 0 0 0 0 0 0 0 0 0 0 0 0 0 0 0 0 0 0 0 0 0 -0 0 0 0 0 0 0 0 0 0 0 0 0 0 0 0 0 0 0 0 0 0 0 0 0 0 0 0 0
-0 0 0 0 0 0 0 0 0 0 0 0 0 0 0 0 0 -0 0 0 0 0 0 0 -0 -0 0 0 0 0 0 0 -0 -0 -0 0 0 0 0 0 0 0 0 0 0 0 0 0 0 0 0 0 0 0
0 0 0 0 0 0 0 0 0 0 0 0 0 0 0 0 0 0 0 -0 0 0 0 0 0 -0 0 0 0 0 0 -0 -0 0 0 0 0 0 0 0 0 0 0 0 0 0 0 0 0 0 0 0 0 -0
0 0 0 0 0 0 0 0 0 0 0 0 0 0 0 0 0 0 0 0 0 0 0 0 0 0 0 0 0 -0 0 -0 -0 -0 -0 -0 0 0 0 0 0 0 0 0 0 0 0 0 0 0 -0 -0 -0 -0
0 0 0 0 0 0 -0 0 0 -0 0 0 0 0 -0 -0 -0 0 0 0 0 0 0 0 0 0 0 -0 -0 0 0 -0 0 -0 -0 0 0 0 0 0 0 0 0 0 0 0 0 0 -0 -0 -0 -0 -0 -0
0 0 0 0 0 0 0 0 0 0 0 0 0 0 -0 -0 0 0 0 0 0 0 0 0 0 0 0 -0 0 0 -0 -0 -0 -0 0 0 0 0 0 0 0 0 0 0 0 0 0 0 -0 -0 -0 0 -0 -0
0 0 0 0 0 0 0 0 0 0 0 0 0 0 -0 -0 0 0 0 0 0 0 0 0 0 0 0 0 -0 0 -0 -0 -0 -0 -0 0 0 0 0 0 0 0 0 0 0 0 0 0 -0 -0 -0 -0 0 -0
0 0 0 -0 0 0 0 0 0 0 0 0 0 -0 -0 -0 0 0 0 0 0 0 0 0 0 0 0 0 -0 -0 -0 0 -0 -0 0 -0 0 0 0 0 0 0 0 0 0 0 0 0 0 0 -0 -0 -0 0
0 0 0 0 0 0 0 0 0 0 0 0 0 0 0 0 0 0 0 0 0 0 0 0 0 0 0 0 0 0 0 -0 -0 -0 0 -0 -0 0 0 0 0 0 0 0 0 0 0 0 0 0 0 0 0 0
0 0 0 0 0 0 0 0 0 0 0 0 0 0 0 0 0 0 0 0 0 0 0 0 0 0 0 0 0 0 0 0 0 -0 -0 -0 -0 0 0 0 0 0 0 0 0 0 0 0 0 0 0 0 0 0
0 0 0 0 0 0 0 0 0 0 0 0 0 0 0 0 0 0 0 0 0 0 0 -0 -0 0 0 0 0 0 0 0 0 -0 0 0 0 0 0 0 0 0 0 0 0 0 0 0 0 0 0 0 0 0
0 0 0 0 0 0 0 0 0 0 0 0 0 0 0 0 -0 0 0 0 -0 -0 -0 -0 -0 -0 0 0 0 0 0 0 0 0 0 0 0 0 0 0 0 0 0 0 0 0 0 0 0 0 0 0 0 0
0 0 0 0 0 0 0 -0 0 0 0 0 0 0 0 0 0 0 0 0 0 0 0 0 0 0 0 0 0 0 0 0 0 0 0 0 0 0 0 0 0 0 0 0 0 0 0 0 0 -0 -0 -0 -0 -0
0 0 0 0 0 0 0 0 0 0 0 0 0 0 0 0 0 0 0 0 0 0 0 0 0 0 0 0 0 0 0 0 0 0 0 0 0 0 0 0 0 0 0 0 0 0 0 0 0 -0 -0 -0 -0 -0
0 0 0 0 0 0 -0 0 0 -0 0 0 0 0 0 0 0 0 0 0 0 0 0 0 0 0 0 0 0 0 0 0 0 0 0 0 0 0 0 0 0 0 0 0 0 0 0 0 0 0 0 0 -0 -0
Wind_Speed_500mb
54 54 53 52 50 48 44 44 42 42 45 38 36 32 36 32 28 31 36 28 35 41 64 67 45 48 51 57 21 47 25 7 9 10 7 8 6 5 7 8 5 5 5 2 5 5 5 46 30 14 18 28 18 54
53 53 52 51 50 45 44 42 40 43 39 36 34 36 34 29 32 30 40 27 34 44 65 77 74 67 69 65 60 23 14 22 7 5 5 9 8 7 11 5 7 3 7 4 9 6 21 28 25 38 38 39 26 19
52 51 50 47 48 42 41 38 40 39 34 33 36 37 35 33 34 33 38 35 42 44 58 31 47 39 27 32 33 27 19 11 10 12 5 5 10 5 6 7 8 8 12 6 6 9 24 27 24 39 50 58 63 58
49 48 46 46 43 37 38 38 38 32 32 36 37 37 37 36 37 36 37 30 37 26 12 27 38 68 43 36 38 52 55 33 18 12 8 6 8 8 6 6 7 8 6 5 5 6 11 33 33 41 65 62 67 64
47 47 45 42 38 34 37 38 33 30 34 38 38 37 37 37 34 32 35 35 33 29 12 46 66 25 20 16 22 25 32 39 16 5 6 6 9 6 2 9 10 13 1 5 5 16 12 31 48 52 76 67 68 75
46 43 40 38 34 37 38 34 30 32 36 40 38 34 32 28 22 23 11 3 9 15 14 10 31 22 19 24 31 29 27 24 11 9 9 11 12 6 5 7 26 62 46 26 16 46 52 52 57 74 82 81 82 79
44 40 38 35 36 37 33 29 32 36 39 41 35 31 25 24 20 18 10 10 20 31 11 13 14 12 30 22 18 19 12 11 10 9 8 10 4 8 5 5 8 32 35 33 31 24 41 36 37 55 70 67 65 68
42 40 38 35 35 34 29 30 34 38 38 35 30 25 23 23 27 29 19 17 19 27 10 7 11 20 24 25 11 7 9 12 13 7 10 2 3 11 7 20 6 7 26 18 31 45 46 48 46 48 49 46 50 48
41 36 34 32 32 28 29 31 35 36 32 24 20 15 15 9 11 10 10 17 14 11 7 9 7 10 31 31 23 9 7 5 7 5 5 7 9 9 9 12 10 22 32 38 37 38 38 41 40 40 41 41 40 35
35 32 31 30 27 26 28 31 31 29 18 12 12 5 6 1 11 20 11 7 12 10 11 9 15 9 18 12 8 10 7 1 4 5 8 8 4 17 20 14 29 28 28 28 31 33 31 32 32 31 31 28 26 24
29 29 29 24 23 25 27 26 23 14 10 11 7 6 16 24 11 9 9 11 16 10 14 13 19 14 8 5 6 11 5 5 3 5 5 3 6 18 34 28 26 29 30 33 34 30 28 26 24 23 23 21 19 17
28 29 23 22 22 23 21 18 7 9 14 14 18 22 15 7 10 11 8 8 12 4 14 9 12 12 7 7 8 9 6 3 6 12 9 5 11 31 29 30 29 29 29 31 28 28 27 24 20 19 16 15 13 12
28 22 20 21 21 19 18 13 12 14 16 7 5 7 8 9 5 10 10 7 5 1 4 14 9 6 7 10 11 8 5 8 3 6 5 6 30 34 33 30 29 27 28 27 25 23 21 21 21 18 13 12 10 8
21 18 18 18 19 18 14 13 9 10 2 7 8 8 10 9 10 9 8 10 11 15 18 21 22 3 7 6 9 6 9 4 2 4 5 18 32 33 30 28 29 26 23 21 19 17 15 14 16 17 14 10 9 11
16 15 15 12 9 5 8 8 8 5 7 8 10 9 13 18 14 12 13 14 20 18 21 17 15 13 10 10 7 7 6 4 4 4 11 36 36 30 29 27 25 22 19 17 14 14 13 12 11 12 12 9 10 12
10 10 7 3 15 20 15 11 7 11 8 10 14 15 24 16 20 16 15 19 20 18 21 14 6 5 8 7 7 6 8 6 5 9 38 38 36 32 31 27 21 19 17 16 15 14 14 13 12 12 12 10 15 15
6 5 8 14 22 17 8 5 6 11 13 11 16 27 34 26 18 23 21 19 13 18 3 7 6 3 11 8 4 7 7 9 25 30 28 36 37 34 29 24 21 19 16 14 13 12 11 10 10 10 9 9 12 12
3 14 16 20 23 10 9 14 8 11 16 26 28 33 26 23 21 20 22 17 12 4 3 4 6 7 8 9 7 9 25 27 25 27 33 38 34 31 27 24 21 18 17 15 13 12 14 13 10 9 7 5 4 6
21 23 20 25 18 8 6 10 14 12 23 31 25 27 20 21 21 24 21 17 12 6 4 3 5 6 7 8 12 11 20 21 26 27 35 33 33 28 27 22 19 17 16 12 10 9 9 10 8 6 4 3 5 5
9 12 13 13 14 7 8 10 15 13 14 14 18 22 24 24 25 23 19 18 14 7 6 6 7 7 14 17 6 10 23 31 38 34 31 28 28 26 24 21 19 17 13 11 12 8 5 7 6 6 4 5 9 8
6 7 7 11 12 15 10 10 13 16 19 18 24 18 22 21 20 23 25 19 20 10 8 18 13 16 20 18 11 9 21 17 23 33 36 35 30 26 17 14 9 8 18 7 11 7 7 5 4 7 7 9 9 9
7 9 8 18 9 9 14 19 15 13 19 29 27 25 23 23 15 8 10 16 10 16 11 8 11 17 14 10 10 18 22 18 17 18 23 24 24 20 17 16 12 7 17 12 11 12 10 7 8 10 10 12 12 15
9 9 8 10 10 8 16 15 11 12 8 8 19 14 8 2 3 9 8 6 10 13 9 12 15 17 6 14 25 18 17 17 18 21 20 21 19 17 15 12 9 7 12 11 11 9 13 9 14 13 15 15 17 18
10 6 8 8 17 10 11 13 14 13 12 19 15 17 8 10 21 6 4 5 8 8 9 12 10 10 12 23 23 19 18 19 17 16 17 19 20 18 14 13 12 11 12 13 13 14 15 14 12 14 16 15 13 12
6 9 8 9 11 9 9 12 21 12 14 15 19 12 7 5 3 2 2 5 13 12 6 7 8 7 14 13 18 10 15 20 19 16 13 16 19 17 16 15 13 13 14 16 16 15 17 16 16 14 15 16 14 13
9 12 14 13 11 14 9 7 8 12 16 10 9 7 13 5 4 1 4 6 11 12 10 4 6 10 7 16 25 25 13 15 21 17 14 17 18 19 19 19 18 17 17 18 20 19 18 20 18 16 15 17 17 16
8 10 18 23 20 15 10 17 22 10 7 7 3 5 4 4 5 4 5 8 12 15 12 10 5 6 12 7 13 12 13 18 17 15 15 15 17 18 18 16 15 15 21 22 21 23 22 22 20 20 17 17 18 16
14 11 15 17 21 25 15 11 12 10 3 4 6 8 6 7 4 5 7 7 11 16 20 13 6 7 10 5 18 16 10 14 13 15 14 16 16 15 12 10 14 15 18 21 22 22 24 24 22 20 19 18 17 18
15 15 18 19 16 11 14 14 13 7 11 10 4 5 5 3 9 6 7 9 15 15 16 28 19 22 17 10 1 8 9 14 6 22 21 20 18 14 11 11 9 10 14 19 25 22 24 25 24 23 22 19 18 19
22 24 16 14 18 12 24 7 7 2 4 6 5 21 20 15 6 6 9 10 12 13 12 15 18 19 17 9 11 11 13 13 15 13 12 16 13 6 10 6 7 8 8 17 18 24 28 28 28 26 25 22 21 21
8 11 19 24 20 21 10 11 5 6 3 2 5 7 15 15 10 7 7 7 9 11 13 12 12 14 17 17 16 8 7 11 13 13 12 17 14 16 7 6 3 3 5 11 17 20 23 30 27 28 29 28 26 24
16 20 16 17 17 10 11 6 0 2 3 6 14 17 18 19 12 8 6 4 8 11 13 14 11 7 6 11 12 12 13 12 8 5 9 11 8 13 12 9 3 4 4 12 19 21 25 29 28 28 29 31 30 30
24 20 21 19 16 12 4 6 6 1 2 7 15 25 20 13 8 8 7 8 9 9 6 3 4 6 8 8 3 3 4 3 15 16 14 16 19 17 14 14 17 15 11 12 17 16 22 31 32 31 31 30 31 32
Wind_Direction_500mb
307 308 311 311 311 310 310 315 316 319 318 317 316 316 318 321 322 311 300 292 287 280 286 285 290 288 282 292 277 292 321 48 318 347 326 354 281 275 268 28 359 219 248 268 246 309 6 341 341 17 307 307 226 146
306 308 308 309 310 311 312 311 312 315 317 315 313 316 318 322 320 315 299 299 291 289 281 290 288 277 270 267 278 286 252 300 277 309 330 316 289 292 321 2 15 47 16 27 25 13 309 340 339 343 31 70 108 103
304 306 307 306 309 311 311 311 311 313 313 312 314 314 315 317 308 300 295 299 298 292 300 290 297 303 309 259 265 246 271 236 215 210 298 284 281 300 311 21 313 37 24 77 207 340 347 7 12 37 57 66 105 101
301 303 305 307 310 305 307 308 310 311 312 311 312 314 315 310 307 303 295 293 285 288 283 292 307 302 294 281 259 251 260 253 244 203 235 264 272 297 317 316 359 343 19 64 71 319 333 42 47 54 75 83 98 109
299 303 306 304 300 298 301 306 307 308 310 311 315 315 314 313 313 309 301 292 272 258 290 298 314 332 318 259 257 260 248 248 209 182 227 245 260 268 178 8 8 357 244 37 77 314 48 65 66 69 77 80 84 97
296 299 301 300 297 297 302 304 302 306 311 314 314 314 313 306 315 336 314 4 59 245 299 304 312 306 297 282 271 272 245 233 193 201 232 237 244 262 44 36 36 56 74 95 99 88 83 76 73 74 75 79 86 91
293 294 292 292 301 300 300 296 302 308 313 314 314 312 305 297 282 254 260 256 319 331 294 297 281 301 328 321 327 292 228 206 224 237 242 251 330 183 41 54 349 105 90 104 126 126 95 85 90 86 85 82 78 78
288 288 285 287 295 297 294 300 306 311 315 318 314 303 293 286 278 274 291 287 261 259 264 277 283 294 357 337 328 304 209 200 214 251 257 270 274 96 76 146 48 82 163 111 102 97 98 104 99 90 86 87 87 87
281 277 277 287 293 290 296 302 308 314 321 323 315 304 290 247 242 283 313 295 256 234 262 232 274 311 338 330 317 345 243 218 136 264 307 63 41 48 150 144 166 114 118 110 105 99 93 89 88 89 92 88 87 88
272 268 279 287 286 290 297 305 313 326 338 0 345 294 267 235 303 312 293 221 214 212 230 259 283 277 329 327 297 307 287 342 200 259 72 107 55 175 143 125 114 121 115 108 104 98 92 86 85 83 80 80 83 86
259 269 281 277 280 290 301 309 321 345 0 355 293 278 297 297 283 235 243 213 190 216 211 241 251 269 262 267 305 293 319 235 253 169 110 116 110 129 134 121 103 105 98 91 89 89 89 91 89 85 78 74 73 71
259 273 266 270 281 291 299 311 317 340 322 297 289 301 291 260 228 246 235 218 211 230 174 227 263 234 227 242 265 273 258 273 243 148 127 110 140 141 126 118 113 109 104 99 98 93 86 80 77 78 70 62 57 52
264 254 262 273 284 289 287 288 298 309 327 310 272 254 234 237 250 233 236 226 205 161 320 297 300 220 196 230 250 259 268 252 115 108 114 133 144 136 132 130 122 116 111 106 100 92 84 75 69 71 69 59 52 39
244 253 267 275 280 278 279 277 288 327 318 246 239 248 229 209 236 238 315 331 324 310 321 320 301 177 278 237 241 258 252 258 145 68 76 133 136 135 142 137 132 124 116 106 94 82 72 66 65 58 50 38 28 19
250 260 264 275 304 294 260 283 286 247 265 258 237 242 228 249 268 291 297 299 325 313 307 310 287 221 226 246 237 255 258 108 115 101 131 140 141 149 146 143 133 127 121 110 95 81 66 60 63 60 52 55 45 22
246 266 266 252 334 315 294 295 263 204 243 239 237 250 256 284 293 282 288 301 282 302 295 278 289 271 258 252 245 249 321 57 89 115 129 143 143 154 147 136 138 128 120 106 84 64 50 48 53 60 44 35 28 30
200 210 279 305 325 318 291 257 195 212 243 233 239 237 261 274 276 278 288 301 315 296 330 284 272 288 295 264 295 22 30 86 122 127 133 142 151 144 140 141 137 130 120 109 92 73 66 61 53 41 48 28 34 22
100 234 258 291 314 297 243 208 237 240 241 248 257 252 228 245 253 264 278 291 297 323 307 327 318 290 288 311 14 49 64 94 106 122 138 146 145 145 144 145 140 136 130 117 96 65 47 32 29 47 44 70 83 16
201 224 261 283 281 239 242 225 215 254 242 265 256 266 250 254 247 255 261 264 261 216 176 205 262 253 287 345 16 78 87 99 115 125 134 143 146 145 142 141 141 142 132 107 79 66 56 47 45 62 67 74 89 61
237 235 253 239 209 234 242 242 224 251 266 277 278 261 247 246 247 238 243 252 235 214 226 234 240 244 278 324 309 131 132 141 139 144 146 149 151 150 149 164 157 153 153 132 104 92 74 71 56 69 90 120 133 106
319 267 233 211 230 229 268 265 239 252 274 265 269 270 251 247 242 235 235 231 226 222 243 230 270 296 291 289 240 180 167 168 159 150 159 157 155 155 161 148 142 176 169 166 134 97 92 80 91 114 111 115 136 135
237 243 221 220 239 240 249 237 243 277 280 267 268 256 254 253 241 240 237 198 224 229 243 291 304 312 295 288 177 160 156 160 147 144 151 157 164 168 170 181 172 153 137 136 148 133 116 110 115 116 113 116 122 128
234 209 230 228 228 238 259 246 241 238 251 262 241 242 200 160 323 263 204 204 227 247 254 267 268 266 248 145 138 140 148 138 147 141 153 157 164 169 160 178 151 153 128 119 128 116 131 120 126 124 123 115 115 117
205 235 235 229 207 256 255 211 222 249 256 261 270 259 118 132 232 234 127 232 225 218 234 306 288 220 161 161 138 147 147 140 143 141 151 151 145 149 151 150 155 136 133 136 132 129 138 139 131 137 140 135 133 128
231 230 209 256 244 238 255 238 233 233 248 246 249 266 128 240 119 51 269 64 69 55 48 20 355 188 167 156 213 154 153 152 152 158 167 154 136 146 146 145 145 153 153 157 156 153 155 146 151 146 148 147 150 139
235 217 200 216 231 220 239 258 250 238 260 272 256 148 134 216 121 297 77 100 80 41 13 1 342 337 182 157 173 177 171 161 158 163 170 164 153 159 160 165 165 174 178 179 169 164 161 165 164 158 163 172 159 149
246 242 219 239 261 266 278 283 287 267 264 279 332 266 214 135 78 54 99 91 79 49 36 115 85 100 110 163 110 136 171 159 170 164 165 163 160 165 171 180 188 190 189 184 180 180 175 172 166 168 175 174 172 172
243 281 253 242 244 250 263 269 278 262 257 329 334 32 52 28 74 72 28 104 107 88 65 56 75 127 176 130 25 37 163 182 186 179 170 165 155 159 158 153 165 171 183 189 192 192 191 187 187 186 187 184 181 177
233 238 256 261 259 246 250 251 259 355 19 23 35 75 76 55 138 79 48 108 114 90 78 64 78 60 98 164 44 63 101 97 138 193 168 163 152 144 143 166 159 174 189 194 193 197 201 197 196 195 193 194 195 183
244 218 228 235 231 237 237 277 311 13 50 40 46 106 105 116 134 40 72 114 115 91 92 82 74 87 74 101 102 112 71 54 93 107 123 146 141 117 189 142 186 163 187 201 189 193 199 198 199 196 193 193 195 193
254 218 235 250 260 250 284 242 263 111 87 244 233 204 148 138 128 99 102 93 104 95 89 76 71 58 59 59 47 67 100 71 86 133 163 168 166 150 91 27 29 205 205 184 207 200 197 193 198 200 201 202 204 204
218 223 232 250 264 251 244 258 325 81 279 195 196 186 165 159 130 116 75 76 112 102 88 83 78 80 110 56 61 56 66 32 24 160 161 159 188 219 209 158 48 339 232 218 206 218 215 204 207 210 211 212 212 212
218 221 231 250 257 224 162 53 322 133 214 231 182 179 167 149 107 139 119 121 116 105 102 47 26 355 297 225 222 5 345 318 295 304 285 260 250 245 236 238 245 242 245 237 219 235 229 222 222 221 220 220 220 220
Wind_Speed_850mb
54 54 53 52 50 48 44 44 42 42 45 38 36 32 36 32 28 31 36 28 35 41 64 67 45 48 51 57 21 47 25 7 9 10 7 8 6 5 7 8 5 5 5 2 5 5 5 46 30 14 18 28 18 54
53 53 52 51 50 45 44 42 40 43 39 36 34 36 34 29 32 30 40 27 34 44 65 77 74 67 69 65 60 23 14 22 7 5 5 9 8 7 11 5 7 3 7 4 9 6 21 28 25 38 38 39 26 19
52 51 50 47 48 42 41 38 40 39 34 33 36 37 35 33 34 33 38 35 42 44 58 31 47 39 27 32 33 27 19 11 10 12 5 5 10 5 6 7 8 8 12 6 6 9 24 27 24 39 50 58 63 58
49 48 46 46 43 37 38 38 38 32 32 36 37 37 37 36 37 36 37 30 37 26 12 27 38 68 43 36 38 52 55 33 18 12 8 6 8 8 6 6 7 8 6 5 5 6 11 33 33 41 65 62 67 64
47 47 45 42 38 34 37 38 33 30 34 38 38 37 37 37 34 32 35 35 33 29 12 46 66 25 20 16 22 25 32 39 16 5 6 6 9 6 2 9 10 13 1 5 5 16 12 31 48 52 76 67 68 75
46 43 40 38 34 37 38 34 30 32 36 40 38 34 32 28 22 23 11 3 9 15 14 10 31 22 19 24 31 29 27 24 11 9 9 11 12 6 5 7 26 62 46 26 16 46 52 52 57 74 82 81 82 79
44 40 38 35 36 37 33 29 32 36 39 41 35 31 25 24 20 18 10 10 20 31 11 13 14 12 30 22 18 19 12 11 10 9 8 10 4 8 5 5 8 32 35 33 31 24 41 36 37 55 70 67 65 68
42 40 38 35 35 34 29 30 34 38 38 35 30 25 23 23 27 29 19 17 19 27 10 7 11 20 24 25 11 7 9 12 13 7 10 2 3 11 7 20 6 7 26 18 31 45 46 48 46 48 49 46 50 48
41 36 34 32 32 28 29 31 35 36 32 24 20 15 15 9 11 10 10 17 14 11 7 9 7 10 31 31 23 9 7 5 7 5 5 7 9 9 9 12 10 22 32 38 37 38 38 41 40 40 41 41 40 35
35 32 31 30 27 26 28 31 31 29 18 12 12 5 6 1 11 20 11 7 12 10 11 9 15 9 18 12 8 10 7 1 4 5 8 8 4 17 20 14 29 28 28 28 31 33 31 32 32 31 31 28 26 24
29 29 29 24 23 25 27 26 23 14 10 11 7 6 16 24 11 9 9 11 16 10 14 13 19 14 8 5 6 11 5 5 3 5 5 3 6 18 34 28 26 29 30 33 34 30 28 26 24 23 23 21 19 17
28 29 23 22 22 23 21 18 7 9 14 14 18 22 15 7 10 11 8 8 12 4 14 9 12 12 7 7 8 9 6 3 6 12 9 5 11 31 29 30 29 29 29 31 28 28 27 24 20 19 16 15 13 12
28 22 20 21 21 19 18 13 12 14 16 7 5 7 8 9 5 10 10 7 5 1 4 14 9 6 7 10 11 8 5 8 3 6 5 6 30 34 33 30 29 27 28 27 25 23 21 21 21 18 13 12 10 8
21 18 18 18 19 18 14 13 9 10 2 7 8 8 10 9 10 9 8 10 11 15 18 21 22 3 7 6 9 6 9 4 2 4 5 18 32 33 30 28 29 26 23 21 19 17 15 14 16 17 14 10 9 11
16 15 15 12 9 5 8 8 8 5 7 8 10 9 13 18 14 12 13 14 20 18 21 17 15 13 10 10 7 7 6 4 4 4 11 36 36 30 29 27 25 22 19 17 14 14 13 12 11 12 12 9 10 12
10 10 7 3 15 20 15 11 7 11 8 10 14 15 24 16 20 16 15 19 20 18 21 14 6 5 8 7 7 6 8 6 5 9 38 38 36 32 31 27 21 19 17 16 15 14 14 13 12 12 12 10 15 15
6 5 8 14 22 17 8 5 6 11 13 11 16 27 34 26 18 23 21 19 13 18 3 7 6 3 11 8 4 7 7 9 25 30 28 36 37 34 29 24 21 19 16 14 13 12 11 10 10 10 9 9 12 12
3 14 16 20 23 10 9 14 8 11 16 26 28 33 26 23 21 20 22 17 12 4 3 4 6 7 8 9 7 9 25 27 25 27 33 38 34 31 27 24 21 18 17 15 13 12 14 13 10 9 7 5 4 6
21 23 20 25 18 8 6 10 14 12 23 31 25 27 20 21 21 24 21 17 12 6 4 3 5 6 7 8 12 11 20 21 26 27 35 33 33 28 27 22 19 17 16 12 10 9 9 10 8 6 4 3 5 5
9 12 13 13 14 7 8 10 15 13 14 14 18 22 24 24 25 23 19 18 14 7 6 6 7 7 14 17 6 10 23 31 38 34 31 28 28 26 24 21 19 17 13 11 12 8 5 7 6 6 4 5 9 8
6 7 7 11 12 15 10 10 13 16 19 18 24 18 22 21 20 23 25 19 20 10 8 18 13 16 20 18 11 9 21 17 23 33 36 35 30 26 17 14 9 8 18 7 11 7 7 5 4 7 7 9 9 9
7 9 8 18 9 9 14 19 15 13 19 29 27 25 23 23 15 8 10 16 10 16 11 8 11 17 14 10 10 18 22 18 17 18 23 24 24 20 17 16 12 7 17 12 11 12 10 7 8 10 10 12 12 15
9 9 8 10 10 8 16 15 11 12 8 8 19 14 8 2 3 9 8 6 10 13 9 12 15 17 6 14 25 18 17 17 18 21 20 21 19 17 15 12 9 7 12 11 11 9 13 9 14 13 15 15 17 18
10 6 8 8 17 10 11 13 14 13 12 19 15 17 8 10 21 6 4 5 8 8 9 12 10 10 12 23 23 19 18 19 17 16 17 19 20 18 14 13 12 11 12 13 13 14 15 14 12 14 16 15 13 12
6 9 8 9 11 9 9 12 21 12 14 15 19 12 7 5 3 2 2 5 13 12 6 7 8 7 14 13 18 10 15 20 19 16 13 16 19 17 16 15 13 13 14 16 16 15 17 16 16 14 15 16 14 13
9 12 14 13 11 14 9 7 8 12 16 10 9 7 13 5 4 1 4 6 11 12 10 4 6 10 7 16 25 25 13 15 21 17 14 17 18 19 19 19 18 17 17 18 20 19 18 20 18 16 15 17 17 16
8 10 18 23 20 15 10 17 22 10 7 7 3 5 4 4 5 4 5 8 12 15 12 10 5 6 12 7 13 12 13 18 17 15 15 15 17 18 18 16 15 15 21 22 21 23 22 22 20 20 17 17 18 16
14 11 15 17 21 25 15 11 12 10 3 4 6 8 6 7 4 5 7 7 11 16 20 13 6 7 10 5 18 16 10 14 13 15 14 16 16 15 12 10 14 15 18 21 22 22 24 24 22 20 19 18 17 18
15 15 18 19 16 11 14 14 13 7 11 10 4 5 5 3 9 6 7 9 15 15 16 28 19 22 17 10 1 8 9 14 6 22 21 20 18 14 11 11 9 10 14 19 25 22 24 25 24 23 22 19 18 19
22 24 16 14 18 12 24 7 7 2 4 6 5 21 20 15 6 6 9 10 12 13 12 15 18 19 17 9 11 11 13 13 15 13 12 16 13 6 10 6 7 8 8 17 18 24 28 28 28 26 25 22 21 21
8 11 19 24 20 21 10 11 5 6 3 2 5 7 15 15 10 7 7 7 9 11 13 12 12 14 17 17 16 8 7 11 13 13 12 17 14 16 7 6 3 3 5 11 17 20 23 30 27 28 29 28 26 24
16 20 16 17 17 10 11 6 0 2 3 6 14 17 18 19 12 8 6 4 8 11 13 14 11 7 6 11 12 12 13 12 8 5 9 11 8 13 12 9 3 4 4 12 19 21 25 29 28 28 29 31 30 30
24 20 21 19 16 12 4 6 6 1 2 7 15 25 20 13 8 8 7 8 9 9 6 3 4 6 8 8 3 3 4 3 15 16 14 16 19 17 14 14 17 15 11 12 17 16 22 31 32 31 31 30 31 32
Wind_Direction_850mb
307 308 311 311 311 310 310 315 316 319 318 317 316 316 318 321 322 311 300 292 287 280 286 285 290 288 282 292 277 292 321 48 318 347 326 354 281 275 268 28 359 219 248 268 246 309 6 341 341 17 307 307 226 146
306 308 308 309 310 311 312 311 312 315 317 315 313 316 318 322 320 315 299 299 291 289 281 290 288 277 270 267 278 286 252 300 277 309 330 316 289 292 321 2 15 47 16 27 25 13 309 340 339 343 31 70 108 103
304 306 307 306 309 311 311 311 311 313 313 312 314 314 315 317 308 300 295 299 298 292 300 290 297 303 309 259 265 246 271 236 215 210 298 284 281 300 311 21 313 37 24 77 207 340 347 7 12 37 57 66 105 101
301 303 305 307 310 305 307 308 310 311 312 311 312 314 315 310 307 303 295 293 285 288 283 292 307 302 294 281 259 251 260 253 244 203 235 264 272 297 317 316 359 343 19 64 71 319 333 42 47 54 75 83 98 109
299 303 306 304 300 298 301 306 307 308 310 311 315 315 314 313 313 309 301 292 272 258 290 298 314 332 318 259 257 260 248 248 209 182 227 245 260 268 178 8 8 357 244 37 77 314 48 65 66 69 77 80 84 97
296 299 301 300 297 297 302 304 302 306 311 314 314 314 313 306 315 336 314 4 59 245 299 304 312 306 297 282 271 272 245 233 193 201 232 237 244 262 44 36 36 56 74 95 99 88 83 76 73 74 75 79 86 91
293 294 292 292 301 300 300 296 302 308 313 314 314 312 305 297 282 254 260 256 319 331 294 297 281 301 328 321 327 292 228 206 224 237 242 251 330 183 41 54 349 105 90 104 126 126 95 85 90 86 85 82 78 78
288 288 285 287 295 297 294 300 306 311 315 318 314 303 293 286 278 274 291 287 261 259 264 277 283 294 357 337 328 304 209 200 214 251 257 270 274 96 76 146 48 82 163 111 102 97 98 104 99 90 86 87 87 87
281 277 277 287 293 290 296 302 308 314 321 323 315 304 290 247 242 283 313 295 256 234 262 232 274 311 338 330 317 345 243 218 136 264 307 63 41 48 150 144 166 114 118 110 105 99 93 89 88 89 92 88 87 88
272 268 279 287 286 290 297 305 313 326 338 0 345 294 267 235 303 312 293 221 214 212 230 259 283 277 329 327 297 307 287 342 200 259 72 107 55 175 143 125 114 121 115 108 104 98 92 86 85 83 80 80 83 86
259 269 281 277 280 290 301 309 321 345 0 355 293 278 297 297 283 235 243 213 190 216 211 241 251 269 262 267 305 293 319 235 253 169 110 116 110 129 134 121 103 105 98 91 89 89 89 91 89 85 78 74 73 71
259 273 266 270 281 291 299 311 317 340 322 297 289 301 291 260 228 246 235 218 211 230 174 227 263 234 227 242 265 273 258 273 243 148 127 110 140 141 126 118 113 109 104 99 98 93 86 80 77 78 70 62 57 52
264 254 262 273 284 289 287 288 298 309 327 310 272 254 234 237 250 233 236 226 205 161 320 297 300 220 196 230 250 259 268 252 115 108 114 133 144 136 132 130 122 116 111 106 100 92 84 75 69 71 69 59 52 39
244 253 267 275 280 278 279 277 288 327 318 246 239 248 229 209 236 238 315 331 324 310 321 320 301 177 278 237 241 258 252 258 145 68 76 133 136 135 142 137 132 124 116 106 94 82 72 66 65 58 50 38 28 19
250 260 264 275 304 294 260 283 286 247 265 258 237 242 228 249 268 291 297 299 325 313 307 310 287 221 226 246 237 255 258 108 115 101 131 140 141 149 146 143 133 127 121 110 95 81 66 60 63 60 52 55 45 22
246 266 266 252 334 315 294 295 263 204 243 239 237 250 256 284 293 282 288 301 282 302 295 278 289 271 258 252 245 249 321 57 89 115 129 143 143 154 147 136 138 128 120 106 84 64 50 48 53 60 44 35 28 30
200 210 279 305 325 318 291 257 195 212 243 233 239 237 261 274 276 278 288 301 315 296 330 284 272 288 295 264 295 22 30 86 122 127 133 142 151 144 140 141 137 130 120 109 92 73 66 61 53 41 48 28 34 22
100 234 258 291 314 297 243 208 237 240 241 248 257 252 228 245 253 264 278 291 297 323 307 327 318 290 288 311 14 49 64 94 106 122 138 146 145 145 144 145 140 136 130 117 96 65 47 32 29 47 44 70 83 16
201 224 261 283 281 239 242 225 215 254 242 265 256 266 250 254 247 255 261 264 261 216 176 205 262 253 287 345 16 78 87 99 115 125 134 143 146 145 142 141 141 142 132 107 79 66 56 47 45 62 67 74 89 61
237 235 253 239 209 234 242 242 224 251 266 277 278 261 247 246 247 238 243 252 235 214 226 234 240 244 278 324 309 131 132 141 139 144 146 149 151 150 149 164 157 153 153 132 104 92 74 71 56 69 90 120 133 106
319 267 233 211 230 229 268 265 239 252 274 265 269 270 251 247 242 235 235 231 226 222 243 230 270 296 291 289 240 180 167 168 159 150 159 157 155 155 161 148 142 176 169 166 134 97 92 80 91 114 111 115 136 135
237 243 221 220 239 240 249 237 243 277 280 267 268 256 254 253 241 240 237 198 224 229 243 291 304 312 295 288 177 160 156 160 147 144 151 157 164 168 170 181 172 153 137 136 148 133 116 110 115 116 113 116 122 128
234 209 230 228 228 238 259 246 241 238 251 262 241 242 200 160 323 263 204 204 227 247 254 267 268 266 248 145 138 140 148 138 147 141 153 157 164 169 160 178 151 153 128 119 128 116 131 120 126 124 123 115 115 117
205 235 235 229 207 256 255 211 222 249 256 261 270 259 118 132 232 234 127 232 225 218 234 306 288 220 161 161 138 147 147 140 143 141 151 151 145 149 151 150 155 136 133 136 132 129 138 139 131 137 140 135 133 128
231 230 209 256 244 238 255 238 233 233 248 246 249 266 128 240 119 51 269 64 69 55 48 20 355 188 167 156 213 154 153 152 152 158 167 154 136 146 146 145 145 153 153 157 156 153 155 146 151 146 148 147 150 139
235 217 200 216 231 220 239 258 250 238 260 272 256 148 134 216 121 297 77 100 80 41 13 1 342 337 182 157 173 177 171 161 158 163 170 164 153 159 160 165 165 174 178 179 169 164 161 165 164 158 163 172 159 149
246 242 219 239 261 266 278 283 287 267 264 279 332 266 214 135 78 54 99 91 79 49 36 115 85 100 110 163 110 136 171 159 170 164 165 163 160 165 171 180 188 190 189 184 180 180 175 172 166 168 175 174 172 172
243 281 253 242 244 250 263 269 278 262 257 329 334 32 52 28 74 72 28 104 107 88 65 56 75 127 176 130 25 37 163 182 186 179 170 165 155 159 158 153 165 171 183 189 192 192 191 187 187 186 187 184 181 177
233 238 256 261 259 246 250 251 259 355 19 23 35 75 76 55 138 79 48 108 114 90 78 64 78 60 98 164 44 63 101 97 138 193 168 163 152 144 143 166 159 174 189 194 193 197 201 197 196 195 193 194 195 183
244 218 228 235 231 237 237 277 311 13 50 40 46 106 105 116 134 40 72 114 115 91 92 82 74 87 74 101 102 112 71 54 93 107 123 146 141 117 189 142 186 163 187 201 189 193 199 198 199 196 193 193 195 193
254 218 235 250 260 250 284 242 263 111 87 244 233 204 148 138 128 99 102 93 104 95 89 76 71 58 59 59 47 67 100 71 86 133 163 168 166 150 91 27 29 205 205 184 207 200 197 193 198 200 201 202 204 204
218 223 232 250 264 251 244 258 325 81 279 195 196 186 165 159 130 116 75 76 112 102 88 83 78 80 110 56 61 56 66 32 24 160 161 159 188 219 209 158 48 339 232 218 206 218 215 204 207 210 211 212 212 212
218 221 231 250 257 224 162 53 322 133 214 231 182 179 167 149 107 139 119 121 116 105 102 47 26 355 297 225 222 5 345 318 295 304 285 260 250 245 236 238 245 242 245 237 219 235 229 222 222 221 220 220 220 220